Temp
19 20 21 21 24 24 24 23 25 23 23 21 22 22 23 20 21 19 15 15 15 15 14 15 16 16 15 15 14 14 14 14 13 13 15 14 14 13 12 12 12 11 12 14 15 15 15 14 14
19 20 21 23 24 23 24 24 23 24 22 20 20 21 22 20 15 14 15 14 15 14 13 15 15 15 15 15 15 14 13 14 13 14 15 15 13 12 12 11 11 12 11 13 14 14 14 14 14
19 20 22 24 24 24 24 24 24 22 20 21 21 20 20 18 14 15 15 14 14 14 13 15 15 15 15 14 14 14 14 14 14 14 13 14 12 11 11 12 11 11 11 12 13 13 13 13 13
19 21 22 23 24 24 24 24 23 21 20 20 21 21 17 15 14 15 14 14 14 14 13 14 15 15 14 13 13 13 14 14 14 13 12 12 11 11 11 11 11 11 10 13 13 13 13 13 13
19 21 23 23 24 24 24 23 23 22 22 21 21 21 17 14 14 14 14 14 14 13 13 14 14 15 13 13 12 13 13 13 12 13 12 13 13 11 11 11 12 12 13 13 13 13 13 13 13
21 22 22 22 24 24 23 22 23 23 22 20 20 20 16 13 13 14 14 14 13 13 13 14 14 14 13 13 12 12 12 11 13 13 11 13 14 13 11 10 12 13 13 13 13 13 13 13 13
21 22 22 23 24 23 24 22 22 23 22 21 20 21 15 13 13 13 13 13 13 13 13 13 13 14 13 13 13 12 11 11 11 11 10 13 14 14 13 11 13 13 13 13 13 13 13 13 12
20 22 22 23 23 23 22 21 22 22 22 19 19 21 16 13 14 13 13 13 13 13 13 13 12 12 14 13 12 12 12 11 11 11 12 13 14 13 13 13 13 13 13 13 13 12 12 12 12
18 21 21 22 22 23 21 22 20 19 19 19 17 18 17 14 13 13 12 12 13 13 13 13 12 12 11 14 13 13 13 12 12 12 12 12 12 12 12 13 13 13 13 12 12 12 12 12 12
19 20 21 23 23 23 22 22 20 20 20 19 17 15 14 14 13 12 12 12 13 13 13 13 12 12 11 13 14 13 13 12 11 12 11 11 11 12 13 13 13 13 12 12 12 12 12 12 10
16 20 21 20 20 20 21 21 21 21 21 22 19 15 13 14 12 12 13 13 14 14 12 13 13 13 13 13 14 14 14 13 11 12 13 13 13 13 12 12 12 12 12 12 12 12 12 11 11
13 15 18 17 16 18 20 21 20 20 21 21 21 16 16 13 14 13 13 14 13 12 12 13 13 13 13 14 14 14 14 14 14 13 13 13 13 13 12 12 12 12 12 12 12 12 11 11 11
14 14 14 15 16 17 17 19 20 21 21 20 20 15 16 13 14 14 13 13 13 12 12 12 13 15 13 13 13 13 13 14 13 13 13 13 13 13 12 12 12 12 12 11 11 11 11 11 11
14 15 14 14 15 16 18 20 18 21 20 19 18 16 14 14 13 14 14 13 13 13 14 15 14 13 14 14 13 13 12 12 13 13 13 13 12 12 12 12 11 11 11 11 11 11 11 11 11
16 15 16 15 15 16 17 19 18 21 20 19 18 17 16 14 14 15 14 13 13 14 14 16 16 14 14 15 15 14 14 13 13 13 13 13 12 12 12 11 11 11 11 11 11 11 11 10 11
16 16 15 17 16 16 17 18 22 20 19 20 19 19 17 15 15 15 14 13 13 14 15 16 16 16 15 14 14 14 14 14 14 13 13 13 12 12 12 11 11 11 11 11 10 10 10 10 10
15 14 15 17 16 16 17 18 20 17 18 20 20 20 18 17 16 15 14 13 14 14 15 16 16 16 16 15 14 13 13 13 13 13 13 13 12 12 11 11 11 11 11 11 10 10 10 11 10
13 16 18 18 17 16 17 18 20 19 18 19 20 20 19 17 16 15 14 14 14 15 14 16 16 16 15 15 14 14 14 14 13 13 13 12 12 11 11 10 11 11 11 11 11 10 11 10 10
18 18 18 18 17 17 18 18 19 20 19 19 19 20 19 18 17 15 14 14 13 13 14 15 16 16 15 15 15 15 14 14 14 13 13 12 12 11 11 11 10 10 11 10 10 10 11 11 10
17 17 17 18 16 15 18 18 18 19 20 20 19 19 19 19 18 16 15 14 13 13 13 14 15 16 15 15 15 14 14 14 14 13 13 12 12 12 11 11 11 11 11 11 11 11 11 11 10
16 16 16 15 15 15 15 16 17 19 18 19 19 18 19 19 18 17 15 14 14 13 13 14 15 15 15 15 14 14 13 12 12 12 13 12 12 12 12 11 11 12 11 11 11 11 11 10 11
13 14 15 14 15 16 16 17 21 21 20 20 19 18 18 18 18 18 16 14 15 16 14 14 14 14 14 14 14 13 13 13 13 13 14 13 13 12 12 12 11 11 11 11 11 10 10 10 10
14 14 13 13 13 13 16 15 19 21 20 20 20 18 19 18 18 17 17 16 17 15 16 16 15 15 14 13 14 14 13 14 12 13 13 13 13 13 12 12 12 11 11 11 11 11 10 10 10
13 13 12 11 12 10 14 15 18 20 19 20 21 20 19 19 19 19 19 17 16 16 17 17 16 15 14 13 14 14 14 13 12 13 12 13 13 13 12 12 11 12 11 11 11 11 10 10 9
11 12 10 10 10 13 14 16 17 19 21 20 20 20 19 19 19 19 19 18 18 18 18 18 17 17 16 15 14 14 14 14 13 13 12 13 13 13 13 13 12 12 12 11 11 11 10 10 9
10 13 14 13 13 16 11 13 17 18 16 17 18 18 19 19 18 18 19 20 19 19 19 19 18 17 16 16 16 15 15 14 14 13 12 13 14 14 13 13 13 13 12 11 11 10 10 9 8
10 10 14 12 7 12 15 16 17 17 17 16 17 16 16 16 17 16 18 18 18 19 19 19 18 18 17 16 16 15 15 15 14 14 13 13 13 14 13 13 13 12 12 11 11 10 9 8 8
13 13 11 12 11 12 16 15 17 18 18 19 17 17 17 17 16 17 17 18 18 17 18 18 18 19 18 17 17 17 16 15 15 14 14 13 12 13 14 13 13 12 11 10 10 10 9 8 8
10 11 13 14 13 13 15 18 18 18 17 18 19 17 17 16 16 16 17 18 18 18 18 18 17 18 18 18 17 17 16 15 14 14 14 14 12 14 12 12 12 11 11 10 9 9 8 7 7
12 11 13 13 11 14 13 15 17 17 17 17 17 16 16 16 17 16 16 17 17 17 17 18 17 16 16 16 16 15 14 14 14 14 14 13 12 10 11 11 11 12 10 9 9 8 7 8 8
Height
1534 1534 1532 1532 1534 1526 1526 1529 1524 1530 1533 1538 1539 1539 1537 1542 1542 1551 1557 1560 1562 1563 1564 1565 1566 1567 1568 1569 1571 1572 1574 1574 1574 1574 1574 1574 1575 1575 1575 1574 1575 1575 1574 1574 1574 1574 1573 1574 1574
1535 1534 1534 1532 1531 1532 1523 1525 1530 1530 1536 1540 1542 1542 1541 1547 1550 1552 1557 1560 1564 1565 1567 1567 1568 1569 1570 1570 1572 1573 1574 1575 1574 1574 1574 1575 1576 1577 1577 1576 1578 1578 1577 1576 1577 1577 1577 1576 1576
1537 1535 1535 1529 1526 1528 1525 1526 1526 1536 1539 1540 1542 1544 1545 1551 1553 1556 1558 1561 1565 1567 1567 1568 1569 1570 1571 1573 1573 1574 1575 1575 1575 1575 1576 1577 1578 1579 1579 1579 1579 1580 1580 1579 1579 1580 1579 1579 1579
1537 1537 1537 1532 1527 1523 1524 1525 1530 1536 1541 1541 1541 1544 1551 1554 1554 1557 1559 1562 1565 1569 1568 1569 1571 1572 1573 1575 1576 1577 1577 1577 1577 1577 1578 1579 1580 1580 1581 1581 1582 1583 1582 1582 1582 1582 1582 1582 1582
1538 1536 1531 1530 1525 1524 1527 1529 1531 1534 1537 1540 1542 1543 1552 1555 1555 1557 1561 1564 1567 1568 1569 1570 1572 1573 1575 1577 1578 1579 1579 1579 1580 1580 1580 1581 1581 1582 1583 1583 1584 1584 1585 1585 1585 1585 1585 1585 1585
1537 1533 1532 1531 1522 1524 1528 1530 1532 1534 1538 1541 1543 1544 1553 1554 1555 1559 1563 1565 1567 1569 1570 1571 1573 1575 1577 1579 1580 1581 1581 1581 1582 1582 1583 1583 1583 1584 1586 1587 1586 1587 1587 1587 1587 1588 1588 1588 1588
1532 1530 1528 1523 1521 1526 1526 1531 1532 1534 1538 1540 1543 1544 1553 1554 1555 1559 1562 1566 1567 1570 1571 1572 1574 1576 1578 1580 1581 1582 1583 1584 1585 1586 1585 1585 1585 1586 1587 1588 1588 1589 1590 1590 1590 1590 1591 1591 1591
1532 1530 1526 1523 1525 1527 1529 1532 1532 1534 1536 1541 1543 1543 1550 1552 1554 1559 1563 1565 1569 1571 1572 1574 1575 1577 1579 1581 1582 1583 1584 1585 1586 1587 1588 1588 1588 1589 1589 1590 1591 1592 1592 1592 1593 1593 1593 1593 1593
1531 1530 1526 1526 1526 1524 1530 1532 1536 1537 1538 1541 1542 1544 1546 1548 1553 1556 1561 1565 1565 1570 1572 1573 1576 1579 1581 1581 1583 1584 1585 1587 1588 1588 1589 1590 1590 1591 1591 1592 1593 1594 1594 1594 1595 1595 1595 1595 1595
1530 1527 1523 1523 1523 1525 1529 1531 1536 1537 1538 1540 1542 1543 1544 1547 1551 1554 1558 1562 1564 1567 1571 1573 1576 1578 1580 1581 1583 1585 1586 1588 1589 1590 1590 1591 1592 1592 1592 1594 1594 1596 1596 1596 1596 1596 1596 1596 1597
1530 1524 1523 1527 1531 1530 1530 1532 1535 1536 1535 1534 1538 1541 1542 1546 1551 1555 1558 1562 1564 1566 1570 1573 1574 1577 1579 1582 1584 1585 1586 1587 1589 1590 1591 1591 1593 1593 1593 1594 1595 1596 1597 1597 1597 1597 1597 1598 1598
1531 1532 1528 1532 1533 1532 1531 1531 1533 1534 1533 1533 1535 1538 1538 1544 1549 1552 1556 1560 1563 1566 1570 1572 1574 1576 1579 1581 1584 1585 1587 1588 1589 1591 1591 1592 1593 1593 1594 1595 1596 1596 1597 1598 1597 1597 1597 1598 1598
1528 1531 1530 1531 1533 1532 1532 1532 1532 1531 1533 1534 1536 1537 1538 1542 1548 1552 1556 1559 1561 1564 1568 1569 1573 1575 1578 1580 1583 1585 1586 1588 1589 1590 1591 1592 1593 1594 1595 1596 1596 1597 1598 1598 1598 1598 1598 1597 1598
1524 1528 1530 1530 1532 1532 1532 1531 1533 1528 1531 1534 1535 1538 1539 1540 1545 1550 1553 1556 1558 1562 1564 1566 1570 1573 1575 1578 1581 1583 1584 1586 1588 1590 1591 1593 1593 1594 1595 1595 1596 1597 1597 1597 1598 1598 1598 1598 1598
1523 1527 1529 1530 1532 1533 1532 1531 1529 1528 1529 1532 1533 1536 1539 1540 1543 1546 1551 1552 1556 1559 1561 1564 1567 1571 1572 1575 1578 1581 1583 1585 1587 1589 1590 1591 1592 1593 1594 1595 1595 1596 1596 1597 1598 1598 1598 1599 1599
1522 1525 1529 1524 1528 1530 1530 1528 1521 1526 1529 1528 1532 1534 1537 1538 1538 1544 1548 1550 1553 1556 1559 1562 1565 1568 1571 1573 1575 1578 1581 1583 1584 1586 1588 1589 1590 1591 1592 1592 1593 1594 1595 1596 1596 1597 1598 1598 1598
1518 1526 1527 1522 1526 1529 1529 1528 1521 1524 1527 1526 1527 1530 1534 1537 1539 1542 1544 1546 1549 1553 1556 1559 1562 1565 1568 1572 1574 1576 1578 1580 1581 1583 1585 1586 1588 1589 1590 1591 1591 1592 1593 1594 1595 1596 1597 1598 1598
1521 1518 1511 1512 1522 1525 1525 1523 1519 1522 1525 1525 1524 1526 1530 1532 1534 1537 1539 1543 1546 1548 1553 1555 1559 1562 1565 1568 1571 1573 1575 1577 1579 1580 1581 1583 1584 1586 1587 1588 1589 1590 1591 1592 1593 1594 1595 1596 1596
1500 1504 1507 1510 1519 1521 1518 1518 1516 1517 1520 1522 1523 1522 1525 1528 1529 1532 1535 1539 1542 1545 1547 1551 1553 1557 1560 1563 1565 1567 1569 1571 1574 1576 1578 1580 1582 1583 1585 1587 1587 1588 1589 1591 1592 1592 1593 1593 1594
1499 1504 1508 1508 1519 1522 1514 1510 1511 1511 1510 1514 1517 1518 1521 1525 1526 1528 1531 1534 1536 1541 1543 1546 1548 1552 1554 1558 1561 1563 1565 1567 1570 1572 1574 1576 1577 1580 1582 1583 1585 1585 1586 1587 1588 1589 1590 1591 1592
1501 1504 1507 1514 1518 1520 1519 1507 1505 1502 1505 1508 1511 1514 1517 1519 1522 1525 1526 1527 1531 1533 1537 1540 1544 1547 1549 1552 1556 1558 1561 1563 1564 1566 1568 1570 1573 1575 1578 1580 1581 1582 1582 1583 1583 1584 1584 1584 1586
1511 1509 1509 1516 1522 1519 1515 1507 1481 1482 1489 1496 1499 1504 1509 1513 1516 1519 1522 1523 1523 1525 1531 1535 1538 1542 1544 1547 1549 1551 1553 1555 1558 1560 1564 1567 1568 1570 1572 1574 1576 1578 1579 1580 1579 1581 1581 1580 1580
1505 1511 1517 1524 1526 1529 1516 1524 1483 1478 1484 1484 1488 1493 1496 1499 1505 1511 1514 1516 1517 1522 1524 1528 1531 1535 1538 1540 1542 1545 1547 1551 1554 1556 1557 1560 1564 1566 1567 1568 1570 1572 1574 1574 1575 1577 1578 1578 1579
1508 1517 1525 1529 1532 1540 1516 1516 1487 1479 1479 1481 1482 1484 1489 1492 1495 1500 1505 1509 1512 1515 1519 1521 1524 1527 1532 1534 1535 1537 1540 1544 1547 1550 1551 1554 1557 1559 1561 1562 1565 1568 1569 1570 1571 1572 1572 1572 1573
1509 1514 1534 1540 1540 1520 1510 1505 1489 1473 1474 1478 1478 1480 1483 1487 1489 1493 1496 1500 1504 1506 1510 1513 1516 1519 1523 1527 1528 1531 1533 1536 1540 1542 1544 1547 1548 1551 1554 1557 1559 1560 1563 1564 1564 1565 1567 1567 1568
1511 1504 1505 1517 1513 1500 1520 1505 1482 1476 1477 1478 1478 1479 1479 1482 1485 1486 1489 1493 1496 1500 1501 1505 1509 1512 1515 1518 1521 1523 1527 1529 1531 1534 1537 1539 1540 1543 1547 1549 1551 1553 1554 1558 1559 1560 1561 1562 1562
1511 1514 1506 1513 1534 1520 1496 1486 1478 1474 1472 1475 1474 1478 1479 1481 1483 1483 1484 1487 1490 1493 1495 1496 1500 1505 1508 1511 1514 1516 1520 1521 1523 1525 1529 1531 1533 1536 1537 1541 1544 1545 1547 1548 1552 1554 1555 1556 1557
1492 1502 1515 1512 1521 1513 1482 1488 1479 1470 1467 1468 1470 1473 1476 1477 1478 1480 1481 1483 1485 1486 1487 1489 1492 1494 1499 1503 1505 1506 1508 1512 1515 1517 1519 1522 1524 1526 1530 1534 1538 1538 1541 1542 1542 1546 1549 1550 1552
1499 1498 1497 1493 1501 1500 1493 1473 1463 1467 1469 1467 1468 1471 1474 1475 1476 1477 1478 1479 1480 1480 1481 1481 1484 1486 1487 1490 1493 1496 1499 1502 1507 1508 1511 1514 1517 1519 1524 1528 1529 1531 1533 1535 1537 1538 1542 1542 1546
1487 1492 1491 1494 1503 1492 1495 1480 1464 1466 1466 1467 1468 1469 1471 1473 1474 1475 1474 1474 1475 1475 1476 1476 1476 1478 1480 1481 1483 1487 1490 1493 1497 1500 1503 1507 1509 1512 1516 1520 1523 1524 1526 1528 1531 1533 1535 1537 1539
Wind_Speed
7 9 6 2 5 4 1 4 2 6 7 4 4 3 8 13 8 4 15 14 13 13 11 7 6 4 4 5 9 12 10 9 7 6 7 6 7 11 13 12 17 15 16 16 15 14 14 13 13
5 8 3 3 5 6 3 4 5 5 7 8 6 3 2 6 6 11 15 16 16 12 10 9 8 6 6 7 8 9 10 9 8 7 6 8 12 13 12 16 17 16 16 15 15 15 15 15 15
5 5 4 3 5 6 3 5 8 8 9 7 5 2 3 5 6 17 13 20 16 13 12 9 8 7 8 9 9 8 8 8 8 11 12 14 16 15 14 13 17 15 14 14 16 17 17 17 16
4 2 4 7 7 1 3 4 10 11 5 4 1 6 7 4 14 8 21 19 18 13 11 11 9 8 11 10 7 6 7 10 11 14 13 14 17 15 14 13 18 15 14 15 15 15 15 16 16
4 4 7 9 7 0 3 1 8 9 9 7 4 5 5 9 7 17 20 18 17 16 11 12 10 10 13 10 8 5 7 10 12 12 13 11 13 15 14 12 14 15 14 14 14 14 15 15 16
10 5 7 10 10 4 2 3 9 9 6 6 4 6 6 8 13 21 19 19 15 13 12 12 11 12 14 10 7 6 9 10 10 11 12 12 11 12 14 12 12 14 13 12 13 13 14 14 15
13 8 12 11 8 5 3 6 10 9 7 5 3 6 4 11 19 21 17 17 14 13 13 12 12 13 16 13 9 5 9 11 12 12 11 11 10 11 11 11 11 12 11 11 11 12 13 13 14
12 8 15 9 9 7 5 9 9 9 6 7 5 4 5 17 21 22 18 18 15 14 13 12 12 12 14 15 12 9 9 11 11 10 10 9 9 10 10 9 10 10 10 10 10 11 12 12 12
3 8 11 14 9 5 7 9 8 4 7 6 7 1 4 22 25 27 19 17 22 19 14 14 13 13 11 13 13 10 9 9 11 11 10 10 9 8 7 8 8 8 8 8 9 10 10 11 11
11 12 15 5 4 3 7 10 10 6 10 8 9 7 14 25 28 27 23 19 21 22 19 17 15 14 14 13 13 11 10 9 8 9 9 8 8 7 7 6 6 6 6 7 8 8 8 10 8
2 12 6 3 0 1 6 11 8 11 10 10 15 16 17 26 24 22 22 19 21 22 18 18 18 15 14 13 13 12 12 12 11 10 9 8 7 6 6 5 5 5 5 5 5 5 6 6 6
3 6 1 3 1 2 6 6 10 14 2 1 8 19 21 28 26 25 24 21 21 20 19 19 20 17 15 13 11 11 10 10 9 9 8 7 7 6 6 5 4 4 3 3 3 3 4 4 5
5 5 4 4 2 4 2 9 13 15 10 4 10 18 22 25 23 21 21 20 20 20 20 22 21 20 17 15 14 13 12 12 11 11 10 8 6 5 5 4 3 2 2 2 2 2 2 2 3
14 10 9 3 2 2 4 6 3 14 13 8 15 17 20 23 24 22 23 22 23 21 25 25 25 23 21 20 16 15 14 13 12 11 9 8 7 6 5 4 3 2 2 3 3 1 0 1 1
11 13 9 7 4 3 3 7 11 6 13 13 15 16 18 21 22 26 25 24 24 24 24 26 27 26 24 21 19 17 15 14 14 12 11 10 9 8 6 5 4 4 2 2 2 2 1 1 4
10 6 8 11 7 3 4 11 8 9 10 16 16 16 17 21 24 24 24 24 25 23 24 24 25 25 25 24 22 19 18 17 16 15 14 13 11 10 9 9 7 6 5 4 3 0 2 3 5
7 7 13 9 13 4 8 7 4 3 10 13 16 17 18 19 20 22 24 25 27 27 25 26 26 25 23 22 21 20 20 19 18 17 16 16 14 13 12 12 10 8 8 6 3 5 5 6 7
8 8 14 16 10 10 11 17 14 6 6 12 15 17 19 20 23 23 25 26 27 28 28 28 27 26 25 24 22 22 21 22 22 20 19 17 15 12 10 8 10 11 10 9 8 7 6 8 8
16 14 11 9 8 7 17 18 20 26 14 11 13 17 19 21 20 22 25 27 27 28 30 30 30 30 28 28 28 28 28 27 25 23 21 18 16 14 13 11 10 12 11 11 10 10 10 10 9
14 15 14 8 5 5 11 18 16 21 26 23 19 17 20 19 19 22 24 27 29 28 28 30 33 32 32 31 31 29 28 27 26 25 23 21 19 18 17 14 14 12 11 13 13 12 13 12 11
12 14 11 7 4 8 9 16 21 22 27 28 24 19 19 19 21 22 25 29 31 33 32 33 34 34 35 33 31 30 26 25 26 27 27 23 21 20 21 19 18 17 17 16 17 15 14 14 14
8 2 3 8 4 6 7 9 12 19 23 20 31 30 26 22 22 23 26 29 34 38 37 36 35 34 35 35 34 33 33 32 31 29 27 22 24 21 22 21 21 21 20 20 21 17 17 16 16
6 9 8 5 2 5 8 5 7 4 14 19 25 33 33 31 28 26 28 33 36 35 38 40 39 39 37 37 37 37 37 34 27 27 28 26 25 24 22 21 21 22 23 23 20 19 20 17 17
17 13 10 4 2 5 13 11 11 13 13 14 22 29 33 32 32 33 30 33 34 36 37 38 40 41 40 38 40 41 40 37 32 30 30 29 29 27 25 23 21 21 24 25 24 24 23 19 19
1 11 3 2 4 6 3 12 16 9 11 9 14 22 25 30 32 33 35 35 36 37 39 39 40 40 42 43 43 43 43 40 38 37 35 33 33 32 31 27 25 23 23 23 26 26 22 21 20
12 6 5 7 6 3 2 9 4 9 9 17 15 12 12 25 28 31 35 37 38 36 38 39 42 42 41 42 43 44 43 42 42 40 36 37 37 35 33 32 30 28 24 23 24 25 23 22 22
7 5 1 2 2 1 6 8 10 12 14 9 15 10 10 8 11 19 26 31 35 35 37 40 42 43 43 44 43 43 44 44 44 42 40 39 37 35 38 35 32 31 29 25 24 24 24 24 24
12 13 4 4 4 6 6 7 8 7 6 8 8 14 11 12 14 15 17 21 25 30 34 35 38 42 42 43 45 44 45 47 46 44 43 40 39 40 36 37 36 35 32 29 25 24 25 25 25
5 13 6 4 4 3 4 5 3 3 2 3 3 4 4 5 8 12 15 18 20 23 27 29 32 37 41 42 44 45 47 47 46 44 43 43 41 40 35 35 37 38 35 32 28 25 27 26 26
15 14 15 6 6 8 3 9 7 5 4 3 3 2 2 3 7 7 8 12 18 22 25 28 31 32 36 39 42 43 46 44 41 40 39 39 40 38 35 36 39 39 36 34 30 26 28 28 27
Wind_Direction
354 346 348 335 252 245 268 159 48 128 142 98 103 314 41 28 9 54 140 137 143 145 156 150 147 146 131 126 149 157 158 137 143 145 146 136 122 108 110 99 96 90 88 85 85 83 83 86 86
348 345 337 281 258 246 142 121 182 133 99 134 133 127 163 78 56 126 147 142 142 145 145 153 146 136 127 123 133 155 168 177 182 143 133 128 124 109 93 101 97 89 89 87 86 83 78 78 81
336 343 274 257 266 273 32 167 131 119 133 156 145 19 40 70 112 136 156 144 147 143 157 143 132 128 122 118 111 121 142 156 141 123 119 122 112 108 103 102 101 97 93 86 84 78 78 79 77
326 254 245 251 249 48 31 148 132 145 142 172 187 120 93 73 140 162 148 148 137 151 165 142 134 134 130 122 121 109 124 122 125 119 116 122 123 115 110 104 110 104 93 85 81 79 77 74 74
266 237 249 238 242 185 157 105 174 177 151 166 206 120 85 129 160 148 149 149 150 164 167 144 137 137 131 130 137 117 133 123 121 122 124 116 115 114 108 103 106 101 91 84 82 79 77 75 74
232 248 236 234 224 175 182 181 188 183 157 132 203 132 114 173 144 152 156 153 154 161 166 151 142 142 139 138 139 119 118 131 129 125 115 111 109 114 110 109 99 98 89 84 82 77 75 73 71
239 222 237 253 256 196 184 176 191 182 167 165 128 159 127 156 159 158 157 151 156 172 169 161 153 152 156 154 155 128 121 121 121 123 122 109 112 110 109 111 98 94 87 83 84 80 76 73 71
232 251 239 238 236 230 141 169 191 185 150 135 160 178 175 179 166 158 164 157 160 166 168 167 158 149 159 166 165 155 128 129 138 127 109 108 102 104 101 99 97 91 86 84 85 83 77 73 69
205 235 228 230 236 232 161 189 182 172 139 174 172 146 134 176 164 172 160 163 173 163 177 175 158 157 160 167 164 162 142 131 131 132 120 108 104 102 109 104 99 96 93 92 86 83 78 73 66
217 227 231 248 251 247 182 213 183 188 174 181 166 128 157 171 174 176 172 177 180 176 169 186 166 164 162 166 159 162 155 147 151 144 129 138 130 129 107 103 100 98 98 89 84 82 77 62 55
238 235 210 123 201 256 195 209 190 228 206 202 191 167 171 174 174 180 180 184 189 186 176 187 175 173 173 170 167 169 168 167 162 161 153 144 132 126 113 112 108 105 112 97 86 80 72 62 62
138 255 189 138 174 240 191 211 207 226 37 223 188 181 176 181 183 185 184 184 186 191 186 183 189 178 179 179 178 180 176 173 173 164 158 156 155 153 144 141 130 111 110 113 90 88 74 60 57
198 181 157 124 87 202 223 224 224 227 226 181 161 176 183 184 188 190 189 188 186 193 191 191 192 189 188 182 182 190 189 182 184 183 179 174 173 169 163 158 147 156 165 156 141 114 84 58 65
190 180 205 192 347 145 229 223 212 237 202 181 173 184 187 192 193 189 192 192 193 193 204 192 193 196 192 191 191 196 194 193 195 196 195 196 195 192 188 187 196 211 212 194 184 202 223 57 47
164 170 185 190 203 194 194 219 225 222 189 194 191 194 196 196 196 198 199 196 199 200 205 201 199 200 202 200 202 206 209 205 205 209 211 213 214 214 214 219 226 223 194 171 150 104 87 15 349
161 203 185 186 192 228 162 253 208 206 204 208 207 203 201 203 203 202 203 202 204 202 207 207 208 209 210 208 204 206 211 215 217 220 221 225 225 228 226 230 230 226 212 194 157 210 324 312 319
202 182 208 175 194 177 217 240 176 179 229 225 213 210 208 211 208 209 208 205 204 205 205 209 210 212 214 219 217 215 216 217 220 224 227 230 230 236 242 242 237 226 213 203 243 278 285 295 307
149 200 202 207 181 204 206 235 240 214 223 237 236 217 220 214 214 210 209 206 206 206 209 213 214 214 214 215 218 221 226 228 228 229 230 231 233 239 258 248 239 228 211 225 243 253 282 291 292
179 193 202 216 141 197 222 237 242 242 221 236 245 238 227 227 217 214 211 208 207 210 211 213 215 215 217 217 218 221 225 229 232 232 232 229 237 245 250 241 240 227 223 237 247 266 275 286 292
188 199 224 182 166 225 245 247 243 244 241 245 244 241 237 234 221 213 209 208 208 208 209 216 219 220 222 224 227 229 232 235 237 238 238 236 235 244 251 244 241 245 244 245 254 267 275 278 287
193 199 199 192 198 248 288 271 250 240 240 240 237 242 244 239 230 220 211 210 208 211 213 215 222 224 225 225 227 230 230 232 234 234 235 234 241 244 250 250 244 244 248 252 255 255 259 267 279
171 201 111 128 182 250 176 278 248 226 225 222 224 226 234 238 231 226 220 216 217 220 218 222 220 224 227 227 227 229 231 233 234 239 245 238 243 247 247 239 243 247 252 250 253 255 256 254 269
116 112 97 98 105 14 211 252 250 304 227 226 221 223 224 220 219 224 222 227 228 223 225 226 226 226 226 228 230 233 238 241 241 244 242 238 238 244 241 240 246 249 249 252 253 258 269 256 274
128 112 73 59 23 247 233 218 263 242 237 243 241 231 228 217 221 227 231 230 232 230 230 232 231 232 229 227 234 235 239 239 238 237 241 238 238 240 235 242 247 251 252 255 257 260 256 256 264
152 144 108 189 197 235 21 222 251 268 280 252 252 240 229 226 224 228 226 228 234 231 232 233 234 235 236 236 237 239 240 241 243 242 239 242 241 239 237 242 242 250 255 253 254 255 252 261 255
177 198 177 207 210 240 87 233 233 272 286 267 249 264 258 228 228 230 233 236 238 236 234 236 237 236 236 238 240 242 244 242 243 242 241 246 249 246 245 240 240 244 247 255 253 254 251 256 244
171 194 80 83 69 293 215 252 251 246 259 260 245 250 245 244 242 241 238 238 241 240 239 239 239 241 239 241 242 243 244 243 241 241 242 246 251 247 240 240 240 239 240 240 249 249 252 252 242
180 149 147 217 207 240 235 249 250 259 273 231 233 241 267 268 248 259 252 248 244 245 245 245 243 244 246 245 244 244 244 245 244 243 243 240 242 248 245 239 240 235 236 232 235 243 250 247 240
179 183 213 191 232 243 284 250 79 275 330 301 187 177 293 292 276 263 253 252 252 251 249 247 245 244 242 240 242 243 242 243 245 245 246 246 240 249 245 241 241 234 234 230 230 239 249 238 231
206 185 187 192 193 234 324 256 146 143 156 170 138 137 289 343 8 342 305 279 267 262 257 253 248 242 242 242 240 237 237 239 244 245 245 246 245 248 248 244 242 241 233 227 230 242 245 231 222